Location: Wangen+im+Allg�u
(47.7098°N, 9.8383°E)
Time: 01:28:38
(UTC+02:00)

ISS - Visible Passes

Search period start: 25 May 2018 00:00
Search period end: 04 June 2018 00:00
Orbit: 402 x 407 km, 51.6° (Epoch: 25 May)

Date Brightness Start Highest point End Pass type
(mag) Time Alt. Az. Time Alt. Az. Time Alt. Az.
25 May -2.5 00:29:46 10° WNW 00:32:53 40° N 00:35:43 12° ENE visible
25 May -2.6 02:06:19 10° WNW 02:08:18 34° WNW 02:08:18 34° WNW visible
25 May -3.6 22:00:32 10° WSW 22:03:48 74° NNW 22:07:05 10° ENE visible
25 May -2.4 23:37:27 10° WNW 23:40:35 39° N 23:43:41 10° ENE visible
26 May -3.5 01:14:07 10° WNW 01:17:14 63° N 01:17:14 63° N visible
26 May -2.5 22:45:06 10° W 22:48:15 42° N 22:51:23 10° ENE visible
27 May -3.0 00:21:54 10° WNW 00:25:06 49° NNE 00:26:25 29° ENE visible
27 May -1.4 01:58:27 10° WNW 01:59:02 14° WNW 01:59:02 14° WNW visible
27 May -2.8 21:52:44 10° W 21:55:56 49° NNW 21:59:07 10° ENE visible
27 May -2.6 23:29:38 10° WNW 23:32:47 42° N 23:35:42 11° E visible
28 May -2.8 01:06:10 10° WNW 01:08:18 37° WNW 01:08:18 37° WNW visible
28 May -2.4 22:37:19 10° WNW 22:40:25 39° N 22:43:32 10° ENE visible
29 May -3.7 00:13:55 10° WNW 00:17:12 73° NNE 00:17:39 60° ENE visible
29 May -2.5 21:44:55 10° WNW 21:48:03 40° N 21:51:11 10° ENE visible
29 May -3.2 23:21:40 10° WNW 23:24:54 53° NNE 23:27:01 19° E visible
30 May -1.9 00:58:15 10° WNW 00:59:38 21° W 00:59:38 21° W visible
30 May -2.7 22:29:23 10° WNW 22:32:33 44° N 22:35:42 10° E visible
31 May -3.8 00:05:54 10° WNW 00:09:02 64° SW 00:09:02 64° SW visible
31 May -3.9 23:13:36 10° WNW 23:16:54 83° NNE 23:18:27 28° ESE visible
01 Jun -1.3 00:50:35 10° W 00:51:05 13° W 00:51:05 13° W visible
01 Jun -3.3 22:21:19 10° WNW 22:24:34 59° NNE 22:27:48 10° E visible
01 Jun -2.7 23:57:57 10° WNW 00:00:31 31° SW 00:00:31 31° SW visible
02 Jun -3.6 23:05:31 10° WNW 23:08:45 54° SSW 23:09:59 31° SSE visible
03 Jun -3.9 22:13:10 10° WNW 22:16:28 86° SSW 22:19:28 12° ESE visible
03 Jun -1.7 23:50:21 10° W 23:52:06 16° SW 23:52:06 16° SW visible
